Total_Precipitation_Accumulation
0.07 0.06 0.03 0.02 0.04 0.08 0.14 0.15 0.14 0.11 0.11 0.13 0.15 0.13 0.11 0.10 0.08 0.05 0.05 0.09 0.11 0.18 0.30 0.21 0.25 0.40 0.42 0.36 0.39 0.41 0.34 0.22 0.36 0.39 0.16 0.06 0.04 0.05 0.04 0.03 0.02 0.02 0.02
0.06 0.03 0.01 0.00 0.01 0.02 0.05 0.08 0.07 0.05 0.05 0.04 0.04 0.03 0.01 0.01 0.02 0.01 0.01 0.03 0.07 0.13 0.24 0.20 0.15 0.21 0.23 0.18 0.18 0.28 0.29 0.24 0.37 0.42 0.30 0.11 0.05 0.03 0.02 0.03 0.02 0.02 0.03
0.03 0.02 0.02 0.01 0.00 0.01 0.01 0.01 0.01 0.01 0.01 0.01 0.01 0.00 0.00 0.00 0.00 0.00 0.01 0.01 0.02 0.04 0.07 0.09 0.11 0.16 0.23 0.22 0.22 0.27 0.29 0.22 0.22 0.31 0.33 0.20 0.07 0.05 0.05 0.08 0.07 0.08 0.11
0.02 0.02 0.02 0.01 0.00 0.00 0.00 0.00 0.00 0.00 0.00 0.00 0.00 0.00 0.00 0.00 0.00 0.01 0.01 0.01 0.02 0.03 0.04 0.05 0.05 0.10 0.17 0.17 0.15 0.17 0.19 0.18 0.14 0.17 0.20 0.22 0.18 0.14 0.08 0.09 0.12 0.14 0.17
0.02 0.02 0.01 0.00 0.00 0.00 0.00 0.00 0.00 0.00 0.00 0.01 0.01 0.01 0.00 0.01 0.01 0.00 0.01 0.01 0.02 0.03 0.04 0.04 0.04 0.06 0.08 0.09 0.09 0.09 0.11 0.10 0.08 0.09 0.12 0.22 0.27 0.28 0.21 0.13 0.12 0.12 0.12
0.03 0.03 0.02 0.01 0.00 0.00 0.00 0.00 0.00 0.01 0.01 0.01 0.02 0.03 0.03 0.03 0.02 0.01 0.01 0.01 0.02 0.04 0.06 0.07 0.08 0.09 0.10 0.09 0.10 0.10 0.10 0.09 0.08 0.09 0.12 0.18 0.24 0.28 0.29 0.23 0.17 0.16 0.18
0.10 0.08 0.06 0.03 0.01 0.00 0.00 0.00 0.00 0.01 0.01 0.01 0.02 0.03 0.02 0.02 0.02 0.01 0.01 0.01 0.02 0.03 0.06 0.11 0.12 0.12 0.12 0.11 0.12 0.13 0.12 0.12 0.11 0.12 0.13 0.16 0.23 0.29 0.31 0.28 0.23 0.22 0.25
0.13 0.11 0.08 0.06 0.03 0.02 0.01 0.00 0.00 0.00 0.00 0.00 0.00 0.01 0.01 0.01 0.00 0.00 0.01 0.01 0.03 0.05 0.08 0.09 0.09 0.09 0.09 0.10 0.11 0.10 0.10 0.14 0.18 0.20 0.20 0.21 0.26 0.35 0.35 0.33 0.31 0.28 0.33
0.07 0.06 0.04 0.03 0.02 0.01 0.01 0.00 0.00 0.00 0.00 0.00 0.00 0.01 0.01 0.01 0.01 0.01 0.02 0.03 0.05 0.07 0.08 0.07 0.07 0.08 0.08 0.09 0.10 0.11 0.14 0.19 0.20 0.24 0.31 0.32 0.34 0.37 0.37 0.35 0.35 0.37 0.38
0.02 0.02 0.02 0.01 0.01 0.00 0.00 0.00 0.00 0.00 0.00 0.00 0.00 0.01 0.01 0.01 0.02 0.02 0.04 0.06 0.06 0.06 0.09 0.12 0.12 0.11 0.10 0.14 0.20 0.19 0.17 0.24 0.31 0.38 0.43 0.43 0.45 0.44 0.38 0.36 0.36 0.35 0.37
0.01 0.01 0.01 0.01 0.00 0.00 0.00 0.00 0.00 0.00 0.00 0.00 0.01 0.01 0.02 0.02 0.02 0.03 0.04 0.05 0.05 0.07 0.11 0.15 0.17 0.18 0.22 0.36 0.49 0.47 0.37 0.42 0.47 0.51 0.56 0.58 0.56 0.51 0.40 0.34 0.31 0.28 0.28
0.00 0.00 0.00 0.00 0.00 0.00 0.00 0.00 0.00 0.00 0.00 0.01 0.01 0.01 0.03 0.04 0.04 0.04 0.04 0.05 0.05 0.05 0.05 0.07 0.11 0.15 0.19 0.30 0.56 0.70 0.69 0.65 0.55 0.55 0.64 0.66 0.57 0.46 0.37 0.32 0.28 0.23 0.20
0.00 0.00 0.00 0.00 0.00 0.00 0.01 0.01 0.00 0.00 0.00 0.00 0.01 0.01 0.02 0.03 0.04 0.04 0.06 0.07 0.06 0.06 0.04 0.05 0.10 0.16 0.17 0.21 0.39 0.58 0.65 0.63 0.56 0.56 0.57 0.55 0.52 0.43 0.35 0.27 0.21 0.16 0.14
0.00 0.00 0.00 0.00 0.00 0.00 0.00 0.00 0.00 0.00 0.00 0.00 0.01 0.01 0.01 0.02 0.04 0.05 0.07 0.08 0.08 0.06 0.06 0.09 0.13 0.15 0.13 0.15 0.27 0.40 0.48 0.49 0.48 0.47 0.44 0.42 0.39 0.37 0.33 0.25 0.19 0.14 0.12
0.00 0.00 0.00 0.00 0.00 0.00 0.00 0.00 0.01 0.01 0.01 0.02 0.03 0.02 0.02 0.02 0.01 0.03 0.05 0.06 0.06 0.05 0.07 0.11 0.12 0.09 0.08 0.17 0.27 0.29 0.26 0.29 0.31 0.30 0.26 0.26 0.30 0.32 0.30 0.23 0.16 0.13 0.12
0.02 0.02 0.02 0.02 0.03 0.02 0.03 0.03 0.03 0.04 0.04 0.06 0.08 0.06 0.05 0.05 0.03 0.04 0.03 0.04 0.05 0.06 0.06 0.06 0.07 0.05 0.06 0.13 0.18 0.15 0.13 0.12 0.13 0.13 0.12 0.11 0.13 0.17 0.19 0.17 0.11 0.07 0.06
0.08 0.07 0.07 0.05 0.04 0.03 0.02 0.02 0.02 0.02 0.03 0.05 0.09 0.09 0.08 0.07 0.04 0.03 0.03 0.03 0.04 0.07 0.07 0.06 0.05 0.03 0.03 0.04 0.05 0.04 0.03 0.03 0.04 0.04 0.04 0.03 0.04 0.05 0.05 0.04 0.03 0.03 0.02
0.07 0.04 0.03 0.01 0.01 0.00 0.01 0.01 0.01 0.02 0.02 0.03 0.08 0.11 0.11 0.08 0.05 0.04 0.04 0.05 0.05 0.07 0.09 0.09 0.08 0.06 0.04 0.00 0.00 0.01 0.01 0.01 0.01 0.01 0.01 0.01 0.02 0.02 0.02 0.02 0.01 0.01 0.00
0.02 0.01 0.01 0.01 0.01 0.01 0.01 0.02 0.02 0.03 0.03 0.04 0.06 0.10 0.13 0.11 0.08 0.07 0.08 0.08 0.09 0.09 0.11 0.12 0.12 0.10 0.07 0.01 0.00 0.00 0.00 0.00 0.00 0.00 0.00 0.00 0.00 0.01 0.01 0.01 0.01 0.00 0.00
0.00 0.01 0.01 0.01 0.02 0.02 0.03 0.03 0.04 0.05 0.06 0.06 0.08 0.11 0.15 0.15 0.12 0.11 0.12 0.12 0.12 0.14 0.15 0.16 0.15 0.14 0.12 0.04 0.01 0.00 0.00 0.01 0.01 0.00 0.00 0.00 0.00 0.00 0.00 0.00 0.00 0.00 0.00
0.00 0.01 0.01 0.02 0.04 0.06 0.08 0.10 0.12 0.13 0.13 0.13 0.14 0.17 0.18 0.19 0.16 0.16 0.15 0.16 0.18 0.19 0.20 0.21 0.19 0.19 0.19 0.09 0.01 0.00 0.01 0.01 0.01 0.00 0.00 0.00 0.00 0.00 0.00 0.00 0.01 0.00 0.00
0.00 0.01 0.02 0.02 0.04 0.07 0.11 0.14 0.15 0.16 0.16 0.18 0.18 0.20 0.23 0.22 0.18 0.19 0.21 0.24 0.26 0.27 0.29 0.34 0.33 0.27 0.23 0.14 0.04 0.01 0.01 0.00 0.00 0.00 0.00 0.00 0.00 0.00 0.00 0.00 0.00 0.00 0.00
0.00 0.00 0.01 0.02 0.03 0.05 0.07 0.09 0.11 0.12 0.12 0.15 0.16 0.20 0.26 0.27 0.26 0.26 0.26 0.31 0.37 0.40 0.40 0.41 0.43 0.38 0.30 0.21 0.09 0.03 0.01 0.00 0.00 0.00 0.00 0.00 0.00 0.00 0.00 0.00 0.00 0.00 0.00
0.00 0.00 0.00 0.01 0.01 0.03 0.05 0.06 0.10 0.14 0.15 0.16 0.16 0.19 0.23 0.29 0.36 0.38 0.36 0.38 0.44 0.48 0.49 0.46 0.41 0.37 0.34 0.28 0.14 0.04 0.01 0.00 0.00 0.00 0.00 0.00 0.00 0.00 0.00 0.00 0.00 0.00 0.00
0.00 0.00 0.00 0.01 0.02 0.02 0.03 0.03 0.06 0.13 0.16 0.16 0.17 0.20 0.23 0.29 0.38 0.44 0.45 0.44 0.47 0.53 0.51 0.44 0.36 0.30 0.28 0.27 0.17 0.05 0.01 0.00 0.00 0.00 0.00 0.00 0.00 0.00 0.00 0.00 0.00 0.00 0.00
0.00 0.01 0.01 0.01 0.02 0.02 0.03 0.03 0.05 0.11 0.16 0.17 0.17 0.20 0.24 0.30 0.37 0.45 0.48 0.44 0.42 0.43 0.45 0.39 0.31 0.23 0.21 0.24 0.21 0.09 0.03 0.01 0.00 0.00 0.00 0.00 0.00 0.00 0.00 0.00 0.00 0.00 0.00